EDT,Max TemperatureF,Mean TemperatureF,Min TemperatureF,Max Dew PointF,MeanDew PointF,Min DewpointF,Max Humidity, Mean Humidity, Min Humidity, Max Sea Level PressureIn, Mean Sea Level PressureIn, Min Sea Level PressureIn, Max VisibilityMiles, Mean VisibilityMiles, Min VisibilityMiles, Max Wind SpeedMPH, Mean Wind SpeedMPH, Max Gust SpeedMPH,PrecipitationIn, CloudCover, Events, WindDirDegrees
2012-4-1,50,42,33,38,35,30,92,77,61,29.93,29.80,29.74,10,10,8,18,7,23,T,7,,317
2012-4-2,49,36,23,33,25,18,100,65,29,30.14,30.07,29.94,10,10,7,15,4,21,0.00,0,Fog,114
2012-4-3,58,43,27,36,29,21,81,60,38,30.05,29.97,29.90,10,10,10,14,4,18,0.01,5,,291
2012-4-4,52,42,32,34,27,23,89,61,32,30.06,29.97,29.92,10,10,10,24,13,32,0.00,0,,324
2012-4-5,44,37,30,23,21,18,69,53,36,30.22,30.15,30.06,10,10,10,16,8,20,0.00,4,,11
2012-4-6,55,39,22,27,22,11,92,56,20,30.36,30.29,30.24,10,10,10,12,4,17,0.00,0,,4
2012-4-7,57,40,22,30,25,17,92,57,21,30.34,30.26,30.12,10,10,10,17,5,21,0.00,0,,128
2012-4-8,55,44,33,43,31,19,96,62,28,30.10,30.00,29.94,10,10,5,22,8,30,0.06,4,Rain,292
2012-4-9,56,44,31,28,22,18,69,47,24,29.97,29.86,29.77,10,10,10,21,10,28,0.00,2,,298
2012-4-10,42,38,33,32,29,25,89,69,49,30.00,29.88,29.81,10,8,2,25,11,36,0.04,6,Rain-Snow,300
2012-4-11,52,42,31,32,27,20,92,61,29,30.25,30.16,29.99,10,10,10,18,10,24,0.00,1,,340
2012-4-12,50,38,25,35,29,23,92,69,46,30.28,30.25,30.21,10,10,8,14,4,17,0.00,2,,58
2012-4-13,54,37,20,36,29,19,92,67,41,30.31,30.23,30.11,10,10,10,16,5,21,0.00,1,,105
2012-4-14,74,56,37,46,41,35,92,61,29,30.09,29.89,29.75,10,10,9,17,7,25,0.02,3,Rain,181
2012-4-15,66,57,47,58,51,42,100,86,72,29.80,29.75,29.64,10,9,2,14,5,20,0.06,6,Rain,138
2012-4-16,70,51,32,63,49,24,93,67,40,30.06,29.60,29.44,10,10,3,31,17,48,0.29,8,Rain-Snow,216
2012-4-17,46,35,24,26,20,16,85,62,38,30.41,30.31,30.07,10,10,10,20,8,32,T,5,,274
2012-4-18,57,39,21,44,33,21,92,66,40,30.38,30.15,29.91,10,10,10,25,8,33,T,4,,157
2012-4-19,55,48,40,44,36,32,93,70,46,30.04,29.99,29.92,10,10,8,17,7,20,0.08,6,Rain,350
2012-4-20,40,37,33,38,35,29,92,84,75,30.01,29.90,29.82,10,8,2,23,13,29,0.79,8,Rain-Snow,31
2012-4-21,49,38,27,28,24,17,85,58,31,30.13,30.07,30.01,10,10,10,18,8,25,0.00,0,,5
2012-4-22,53,38,23,30,23,15,92,58,24,30.17,30.12,30.07,10,10,10,21,8,30,0.00,0,,7
2012-4-23,55,44,32,26,19,11,75,47,19,30.06,29.83,29.58,10,10,10,29,15,40,0.00,1,,332
2012-4-24,56,48,40,25,21,18,45,34,22,29.66,29.52,29.46,10,10,10,32,17,49,0.00,3,,316
2012-4-25,59,43,26,37,29,19,85,54,23,29.80,29.76,29.68,10,10,10,15,4,18,0.00,2,,159
2012-4-26,49,41,33,39,33,22,86,63,40,30.09,29.81,29.69,10,9,4,30,13,39,0.09,7,Rain,326
2012-4-27,49,39,28,27,19,12,85,56,26,30.30,30.21,30.12,10,10,10,22,10,30,0.00,0,,326
2012-4-28,47,35,22,28,25,21,92,69,45,30.34,30.31,30.28,10,10,10,15,5,18,0.00,1,,121
2012-4-29,58,43,27,26,21,13,85,54,22,30.38,30.32,30.27,10,10,10,15,4,24,0.00,0,,197
2012-4-30,45,39,32,39,33,20,89,65,41,30.27,30.07,29.93,10,10,5,17,7,23,0.06,7,Rain,126